COSMOS 249 DEB, 3695

Orbit data source: Space-Track

COSMOS 249 DEB, 3695 is space debris in LEO originally from a launch on Sun, 20 Oct 1968 UTC launched from the Tyuratam Missile And Space Complex (TTMTR). Debris objects in space refer to the collection of defunct objects orbiting the Earth. Examples of debris include non-operational satellites, rocket bodies, and fragments generated from explosions, collisions, or faulty payload assembly.

Loading next visibility...
Identifier
3695, 1968-091AL
Orbit
LEO
Last TLE update
1 day ago
Origin
Manufacturer
Unknown
Mission
Spacecraft
Bus & Motor
Unknown
Mass
Unknown
Launch date (UTC)
1968-10-20 (57 years ago)
Launch vehicle
Unknown
Launch site
Tyuratam Missile And Space Complex (TTMTR)
Object type
Payload
Rocket body
Debris
Shape & HBR
Unknown
Radar Cross Section
Small (<0.1 m²)

Expand to show TLE details & history

TLE from 1 day ago
0 COSMOS 249 DEB
1 03695U 68091AL  25128.24040652  .00002253  00000-0  23466-2 0  9993
2 03695  62.2344 189.6485 0675660 143.7397 221.1417 13.05747822619284
Epoch: 2025-05-08T05:46Z
Definitive object data (Epoch: 2025-05-08T05:46:11.123Z)
Latitude
-0.00002°
Longitude
-123.2116°
Altitude
1,642.918 km
Speed
6.863 km/s
True Right ascension
12h 38m 35s
True Declination
0° 00' 00"
Sunlit
Object was in full shadow at TLE epoch
Visualization TLE readout
Latitude
8.28319°
Longitude
-121.53828°
Altitude
1,583.257 km
Speed
6.917 km/s
Apparent Right ascension
10h 13m 09s
Apparent Declination
-27° 50' 46"
Sunlit
Object is in full shadow
Visualization observer readout
Local Sidereal Time
15:42:12
Azimuth
243.615° WSW
Elevation
-12.029°
Doppler factor
1
Orbital elements
Apogee altitude
1,753.277 km
Perigee altitude
724.006 km
Semi-major axis
7,616.779 km
Eccentricity
0.067566
Inclination
62.2344°
RAAN
189.6485°
Arg. of periapsis
143.7397°
True anomaly
216.35853°
Mean anomaly
221.1417°
Eccentric anomaly
218.72017°
Mean motion
3.26502 °/min
BSTAR
0.0023466
Orbital period
110.26 mins
Loading maneuver chart data...
Loading SW <> Apogee altitude chart data...

COSMOS 249 DEB Visibility forecast

Observer location: undefined°, undefined°

Span
Click to sort rows by Start time (UTC) header in descending order
Start Az.
Max El. time (UTC)
Max El. Az.
Max El.
End time (UTC)
End Az.
11 mins2025-05-09 07:43:11.511Z267.256° W2025-05-09 07:49:11.511Z319.63° NNW24.356°2025-05-09 07:54:11.511Z13.391° NNE
8 mins2025-05-09 13:35:11.511Z343.487° N2025-05-09 13:39:11.511Z51.323° ENE30.672°2025-05-09 13:43:11.511Z111.08° ESE
6 mins2025-05-09 15:30:11.511Z285.666° WNW2025-05-09 15:32:11.511Z252.977° W23.595°2025-05-09 15:36:11.511Z192.306° SSW
9 mins2025-05-10 03:50:11.511Z145.163° SSE2025-05-10 03:54:11.511Z115.679° SE18.533°2025-05-10 03:59:11.511Z73.567° E
14 mins2025-05-10 05:41:11.511Z212.521° SW2025-05-10 05:48:11.511Z193.088° SSW44.922°2025-05-10 05:55:11.511Z36.218° NE
|